TimeCDT,TemperatureF,Dew PointF,Humidity,Sea Level PressureIn,VisibilityMPH,Wind Direction,Wind SpeedMPH,Gust SpeedMPH,PrecipitationIn,Events,Conditions,WindDirDegrees,DateUTC
12:15 AM,47.7,36.7,66,30.28,3.0,ENE,5.8,-,N/A,,Haze,70,2013-10-13 05:15:00
12:35 AM,47.3,36.7,67,30.29,10.0,East,4.6,-,N/A,,Overcast,90,2013-10-13 05:35:00
12:55 AM,47.3,36.1,65,30.30,10.0,East,4.6,-,N/A,,Overcast,90,2013-10-13 05:55:00
1:15 AM,46.4,37.0,70,30.31,10.0,East,4.6,-,N/A,,Overcast,90,2013-10-13 06:15:00
1:35 AM,47.1,37.6,69,30.30,10.0,East,4.6,-,N/A,,Overcast,90,2013-10-13 06:35:00
1:55 AM,46.9,37.8,70,30.31,10.0,East,3.5,-,N/A,,Overcast,100,2013-10-13 06:55:00
2:15 AM,47.1,37.4,69,30.32,10.0,ESE,3.5,-,N/A,,Overcast,110,2013-10-13 07:15:00
2:35 AM,46.4,36.9,69,30.32,10.0,East,3.5,-,N/A,,Mostly Cloudy,100,2013-10-13 07:35:00
2:55 AM,45.0,36.7,73,30.32,10.0,ESE,3.5,-,N/A,,Mostly Cloudy,110,2013-10-13 07:55:00
3:15 AM,44.6,36.9,74,30.32,10.0,ESE,4.6,-,N/A,,Overcast,110,2013-10-13 08:15:00
3:35 AM,44.6,37.4,76,30.32,10.0,East,4.6,-,N/A,,Overcast,100,2013-10-13 08:35:00
3:55 AM,45.1,37.6,75,30.32,10.0,ESE,4.6,-,N/A,,Overcast,110,2013-10-13 08:55:00
4:15 AM,45.9,37.2,72,30.32,10.0,ESE,5.8,-,N/A,,Overcast,110,2013-10-13 09:15:00
4:35 AM,45.5,37.4,73,30.32,10.0,ESE,4.6,-,N/A,,Overcast,110,2013-10-13 09:35:00
4:55 AM,45.5,37.6,74,30.32,10.0,ESE,4.6,-,N/A,,Overcast,110,2013-10-13 09:55:00
5:15 AM,45.9,36.9,71,30.32,10.0,ESE,4.6,-,N/A,,Overcast,110,2013-10-13 10:15:00
5:35 AM,45.0,37.9,76,30.32,10.0,East,4.6,-,N/A,,Overcast,90,2013-10-13 10:35:00
5:55 AM,44.2,37.4,77,30.32,10.0,East,4.6,-,N/A,,Mostly Cloudy,90,2013-10-13 10:55:00
6:15 AM,43.2,37.2,80,30.34,10.0,East,4.6,-,N/A,,Mostly Cloudy,100,2013-10-13 11:15:00
6:35 AM,42.1,36.5,81,30.34,10.0,East,5.8,-,N/A,,Scattered Clouds,100,2013-10-13 11:35:00
6:55 AM,41.5,36.5,82,30.34,10.0,East,4.6,-,N/A,,Scattered Clouds,100,2013-10-13 11:55:00
7:15 AM,41.0,36.5,84,30.35,10.0,East,4.6,-,N/A,,Mostly Cloudy,100,2013-10-13 12:15:00
7:35 AM,40.3,36.5,86,30.35,10.0,East,5.8,-,N/A,,Scattered Clouds,100,2013-10-13 12:35:00
7:55 AM,40.1,36.0,85,30.35,10.0,ESE,5.8,-,N/A,,Clear,120,2013-10-13 12:55:00
8:15 AM,41.5,36.1,81,30.36,10.0,ESE,4.6,-,N/A,,Clear,120,2013-10-13 13:15:00
8:35 AM,43.3,37.4,80,30.37,10.0,ESE,4.6,-,N/A,,Clear,120,2013-10-13 13:35:00
8:55 AM,46.6,36.5,68,30.38,10.0,SE,4.6,-,N/A,,Clear,130,2013-10-13 13:55:00
9:15 AM,48.9,36.0,61,30.38,10.0,SE,6.9,-,N/A,,Clear,140,2013-10-13 14:15:00
9:35 AM,51.4,36.1,56,30.38,10.0,SE,6.9,-,N/A,,Clear,140,2013-10-13 14:35:00
9:55 AM,54.0,35.1,49,30.39,10.0,SE,9.2,-,N/A,,Clear,130,2013-10-13 14:55:00
10:15 AM,56.3,34.5,44,30.39,10.0,SE,6.9,-,N/A,,Clear,140,2013-10-13 15:15:00
10:55 AM,59.7,32.0,35,30.39,10.0,SE,15.0,-,N/A,,Clear,140,2013-10-13 15:55:00
11:15 AM,61.7,32.0,33,30.38,10.0,SE,12.7,-,N/A,,Clear,140,2013-10-13 16:15:00
11:35 AM,63.3,33.3,33,30.38,10.0,SSE,16.1,19.6,N/A,,Clear,150,2013-10-13 16:35:00
11:55 AM,63.7,32.2,31,30.37,10.0,SSE,16.1,20.7,N/A,,Clear,150,2013-10-13 16:55:00
12:15 PM,64.9,32.4,30,30.37,10.0,SSE,15.0,19.6,N/A,,Clear,150,2013-10-13 17:15:00
12:35 PM,65.3,32.0,29,30.36,10.0,SSE,13.8,20.7,N/A,,Clear,150,2013-10-13 17:35:00
12:55 PM,66.2,32.0,28,30.36,10.0,SE,13.8,20.7,N/A,,Clear,140,2013-10-13 17:55:00
1:15 PM,67.5,32.5,27,30.34,10.0,SSE,15.0,-,N/A,,Clear,160,2013-10-13 18:15:00
1:35 PM,67.1,31.8,27,30.34,10.0,SSE,15.0,20.7,N/A,,Clear,150,2013-10-13 18:35:00
1:55 PM,68.0,31.8,26,30.32,10.0,SSE,15.0,24.2,N/A,,Clear,150,2013-10-13 18:55:00
2:15 PM,68.5,31.8,26,30.31,10.0,South,13.8,20.7,N/A,,Clear,170,2013-10-13 19:15:00
2:35 PM,68.9,32.5,26,30.30,10.0,South,10.4,19.6,N/A,,Clear,170,2013-10-13 19:35:00
2:55 PM,69.1,32.2,25,30.29,10.0,SSE,16.1,21.9,N/A,,Clear,160,2013-10-13 19:55:00
3:15 PM,69.3,33.3,26,30.28,10.0,SSE,13.8,21.9,N/A,,Clear,150,2013-10-13 20:15:00
3:35 PM,69.3,32.5,26,30.27,10.0,SSE,13.8,21.9,N/A,,Clear,160,2013-10-13 20:35:00
3:55 PM,69.3,32.4,26,30.27,10.0,SE,13.8,21.9,N/A,,Clear,140,2013-10-13 20:55:00
4:15 PM,69.4,32.9,26,30.26,10.0,South,17.3,20.7,N/A,,Clear,170,2013-10-13 21:15:00
4:35 PM,69.1,32.5,26,30.25,10.0,SE,13.8,25.3,N/A,,Clear,140,2013-10-13 21:35:00
4:55 PM,68.9,32.2,26,30.24,10.0,SSE,15.0,20.7,N/A,,Clear,150,2013-10-13 21:55:00
5:15 PM,68.4,31.5,25,30.23,10.0,SSE,17.3,23.0,N/A,,Clear,150,2013-10-13 22:15:00
5:35 PM,68.0,32.2,26,30.23,10.0,SE,15.0,23.0,N/A,,Clear,130,2013-10-13 22:35:00
5:55 PM,67.1,32.2,27,30.24,10.0,SE,13.8,18.4,N/A,,Clear,140,2013-10-13 22:55:00
6:15 PM,66.0,32.7,29,30.24,10.0,SE,11.5,19.6,N/A,,Clear,140,2013-10-13 23:15:00
6:35 PM,64.4,32.9,31,30.24,10.0,SE,12.7,-,N/A,,Clear,140,2013-10-13 23:35:00
6:55 PM,62.2,33.4,34,30.24,10.0,SE,8.1,-,N/A,,Clear,130,2013-10-13 23:55:00
7:15 PM,59.5,34.7,39,30.25,10.0,SE,8.1,-,N/A,,Clear,130,2013-10-14 00:15:00
7:35 PM,57.7,35.6,44,30.25,7.0,ESE,5.8,-,N/A,,Clear,120,2013-10-14 00:35:00
7:55 PM,57.6,35.8,44,30.24,7.0,ESE,8.1,-,N/A,,Scattered Clouds,120,2013-10-14 00:55:00
8:15 PM,57.7,36.1,44,30.25,10.0,ESE,9.2,-,N/A,,Scattered Clouds,120,2013-10-14 01:15:00
8:35 PM,57.7,36.1,44,30.25,7.0,ESE,9.2,-,N/A,,Scattered Clouds,120,2013-10-14 01:35:00
8:55 PM,56.5,36.7,48,30.25,10.0,ESE,9.2,-,N/A,,Clear,120,2013-10-14 01:55:00
9:15 PM,55.4,36.7,49,30.24,10.0,SE,11.5,-,N/A,,Scattered Clouds,130,2013-10-14 02:15:00
9:35 PM,55.4,36.7,49,30.24,10.0,SE,11.5,-,N/A,Thunderstorm,Scattered Clouds,130,2013-10-14 02:35:00
9:55 PM,56.3,36.9,48,30.24,10.0,SE,11.5,-,N/A,,Scattered Clouds,130,2013-10-14 02:55:00
10:15 PM,57.4,36.7,46,30.24,10.0,SE,13.8,-,N/A,,Overcast,140,2013-10-14 03:15:00
10:35 PM,57.7,36.5,45,30.23,10.0,SE,13.8,21.9,N/A,,Overcast,140,2013-10-14 03:35:00
10:55 PM,58.1,36.5,44,30.23,10.0,SE,15.0,-,N/A,,Overcast,140,2013-10-14 03:55:00
11:15 PM,57.6,36.9,46,30.24,10.0,SE,13.8,-,N/A,,Overcast,140,2013-10-14 04:15:00
11:35 PM,57.9,37.8,47,30.22,10.0,SE,15.0,-,N/A,Rain,Light Rain,140,2013-10-14 04:35:00
11:55 PM,57.2,37.4,48,30.21,10.0,SE,11.5,-,N/A,Thunderstorm,Mostly Cloudy,140,2013-10-14 04:55:00